TimeCST,TemperatureF,Dew PointF,Humidity,Sea Level PressureIn,VisibilityMPH,Wind Direction,Wind SpeedMPH,Gust SpeedMPH,PrecipitationIn,Events,Conditions,WindDirDegrees,DateUTC
12:14 AM,12.2,12.2,100,30.23,5.0,Calm,Calm,-,N/A,,Scattered Clouds,0,2012-11-14 06:14:00
12:34 AM,12.2,10.4,92,30.22,7.0,Calm,Calm,-,N/A,,Clear,0,2012-11-14 06:34:00
12:54 AM,12.2,10.4,92,30.22,7.0,Calm,Calm,-,N/A,,Clear,0,2012-11-14 06:54:00
1:14 AM,12.2,10.4,92,30.22,7.0,Calm,Calm,-,N/A,,Clear,0,2012-11-14 07:14:00
1:34 AM,10.4,8.6,92,30.22,7.0,Calm,Calm,-,N/A,,Clear,0,2012-11-14 07:34:00
1:54 AM,12.2,10.4,92,30.22,7.0,Calm,Calm,-,N/A,,Clear,0,2012-11-14 07:54:00
2:14 AM,10.4,8.6,92,30.22,7.0,Calm,Calm,-,N/A,,Clear,0,2012-11-14 08:14:00
2:34 AM,10.4,8.6,92,30.21,7.0,East,4.6,-,N/A,,Clear,100,2012-11-14 08:34:00
2:54 AM,8.6,6.8,92,30.21,10.0,Calm,Calm,-,N/A,,Clear,0,2012-11-14 08:54:00
3:14 AM,8.6,6.8,92,30.22,7.0,Calm,Calm,-,N/A,,Clear,0,2012-11-14 09:14:00
3:34 AM,8.6,6.8,92,30.21,7.0,SSE,5.8,-,N/A,,Clear,160,2012-11-14 09:34:00
3:54 AM,10.4,8.6,92,30.20,10.0,SE,5.8,-,N/A,,Clear,140,2012-11-14 09:54:00
4:14 AM,10.4,8.6,92,30.20,7.0,Calm,Calm,-,N/A,,Clear,0,2012-11-14 10:14:00
4:34 AM,8.6,6.8,92,30.20,10.0,SSE,5.8,-,N/A,,Clear,160,2012-11-14 10:34:00
4:54 AM,10.4,8.6,92,30.20,10.0,SSE,6.9,-,N/A,,Clear,160,2012-11-14 10:54:00
5:14 AM,8.6,6.8,92,30.20,10.0,South,3.5,-,N/A,,Clear,170,2012-11-14 11:14:00
5:34 AM,8.6,6.8,92,30.20,10.0,Calm,Calm,-,N/A,,Clear,0,2012-11-14 11:34:00
5:54 AM,10.4,8.6,92,30.19,7.0,SE,3.5,-,N/A,,Clear,140,2012-11-14 11:54:00
6:14 AM,10.4,10.4,100,30.18,7.0,SE,3.5,-,N/A,,Clear,140,2012-11-14 12:14:00
6:34 AM,10.4,8.6,92,30.18,7.0,SE,4.6,-,N/A,,Clear,140,2012-11-14 12:34:00
6:54 AM,12.2,10.4,92,30.17,7.0,SE,5.8,-,N/A,,Clear,140,2012-11-14 12:54:00
7:14 AM,12.2,10.4,92,30.17,7.0,SE,5.8,-,N/A,,Clear,140,2012-11-14 13:14:00
7:34 AM,12.2,10.4,92,30.16,7.0,SE,6.9,-,N/A,,Clear,140,2012-11-14 13:34:00
7:54 AM,12.2,10.4,92,30.16,7.0,SSE,6.9,-,N/A,,Clear,150,2012-11-14 13:54:00
8:14 AM,12.2,10.4,92,30.15,7.0,SE,4.6,-,N/A,,Clear,140,2012-11-14 14:14:00
8:34 AM,15.8,14.0,93,30.16,5.0,SSE,4.6,-,N/A,,Clear,150,2012-11-14 14:34:00
8:54 AM,15.8,14.0,93,30.15,5.0,SE,4.6,-,N/A,,Clear,140,2012-11-14 14:54:00
9:14 AM,19.4,17.6,93,30.15,4.0,SSE,5.8,-,N/A,,Clear,150,2012-11-14 15:14:00
9:34 AM,19.4,17.6,93,30.15,4.0,SSE,5.8,-,N/A,,Clear,150,2012-11-14 15:34:00
9:53 AM,19.4,17.6,93,30.14,5.0,SSE,5.8,-,N/A,,Clear,150,2012-11-14 15:53:00
10:14 AM,19.4,19.4,100,30.14,5.0,SSE,4.6,-,N/A,,Clear,160,2012-11-14 16:14:00
10:34 AM,21.2,21.2,100,30.13,5.0,SE,6.9,-,N/A,,Clear,140,2012-11-14 16:34:00
10:53 AM,24.8,23.0,93,30.13,5.0,SE,8.1,-,N/A,,Clear,140,2012-11-14 16:53:00
11:14 AM,24.8,24.8,100,30.12,5.0,SSE,9.2,-,N/A,,Clear,160,2012-11-14 17:14:00
11:34 AM,26.6,24.8,93,30.12,5.0,SSE,11.5,-,N/A,,Clear,160,2012-11-14 17:34:00
11:53 AM,26.6,26.6,100,30.10,5.0,SSE,11.5,-,N/A,,Clear,160,2012-11-14 17:53:00
12:14 PM,26.6,26.6,100,30.09,5.0,SSE,12.7,-,N/A,,Clear,160,2012-11-14 18:14:00
12:34 PM,28.4,26.6,93,30.08,5.0,SSE,11.5,-,N/A,,Clear,160,2012-11-14 18:34:00
12:53 PM,30.2,28.4,93,30.07,5.0,SSE,11.5,-,N/A,,Clear,160,2012-11-14 18:53:00
1:14 PM,30.2,28.4,93,30.05,7.0,SSE,10.4,-,N/A,,Clear,150,2012-11-14 19:14:00
1:34 PM,30.2,28.4,93,30.05,7.0,SSE,12.7,-,N/A,,Clear,160,2012-11-14 19:34:00
1:54 PM,30.2,28.4,93,30.04,5.0,SSE,11.5,-,N/A,,Clear,160,2012-11-14 19:54:00
2:14 PM,32.0,30.2,93,30.04,7.0,South,9.2,-,N/A,,Clear,170,2012-11-14 20:14:00
2:33 PM,33.8,30.2,87,30.03,7.0,South,9.2,-,N/A,,Clear,170,2012-11-14 20:33:00
2:54 PM,33.8,30.2,87,30.03,7.0,South,10.4,-,N/A,,Clear,180,2012-11-14 20:54:00
3:14 PM,33.8,30.2,87,30.02,7.0,South,11.5,-,N/A,,Clear,180,2012-11-14 21:14:00
3:33 PM,32.0,30.2,93,30.02,7.0,South,13.8,-,N/A,,Scattered Clouds,180,2012-11-14 21:33:00
3:54 PM,32.0,30.2,93,30.01,5.0,South,16.1,-,N/A,,Mostly Cloudy,170,2012-11-14 21:54:00
4:14 PM,32.0,30.2,93,30.02,2.5,South,16.1,-,N/A,,Overcast,180,2012-11-14 22:14:00
4:33 PM,30.2,30.2,100,30.01,1.0,South,18.4,21.9,N/A,,Overcast,180,2012-11-14 22:33:00
4:54 PM,30.2,30.2,100,30.00,1.0,South,18.4,-,N/A,,Overcast,180,2012-11-14 22:54:00
5:14 PM,30.2,30.2,100,30.00,1.5,South,16.1,-,N/A,,Overcast,180,2012-11-14 23:14:00
5:34 PM,30.2,30.2,100,29.99,0.8,South,15.0,-,N/A,,Overcast,180,2012-11-14 23:34:00
5:54 PM,30.2,30.2,100,29.99,0.5,South,16.1,-,N/A,Fog,Light Freezing Fog,170,2012-11-14 23:54:00
6:14 PM,30.2,30.2,100,29.99,0.5,South,13.8,-,N/A,Fog,Light Freezing Fog,170,2012-11-15 00:14:00
6:34 PM,30.2,30.2,100,29.98,0.2,South,10.4,-,N/A,Fog,Light Freezing Fog,170,2012-11-15 00:34:00
6:54 PM,30.2,30.2,100,29.98,0.2,South,11.5,-,N/A,Fog,Light Freezing Fog,180,2012-11-15 00:54:00
7:14 PM,30.2,30.2,100,29.97,0.2,South,11.5,-,N/A,Fog,Light Freezing Fog,180,2012-11-15 01:14:00
7:34 PM,30.2,28.4,93,29.97,0.2,South,10.4,-,N/A,Fog,Light Freezing Fog,170,2012-11-15 01:34:00
7:54 PM,28.4,28.4,100,29.97,0.2,South,6.9,-,N/A,Fog,Light Freezing Fog,180,2012-11-15 01:54:00
8:34 PM,28.4,28.4,100,29.96,0.2,South,8.1,-,N/A,Fog,Light Freezing Fog,180,2012-11-15 02:34:00
8:54 PM,28.4,26.6,93,29.96,0.2,South,8.1,-,N/A,Fog,Light Freezing Fog,180,2012-11-15 02:54:00
9:14 PM,28.4,26.6,93,29.96,0.2,South,6.9,-,N/A,Fog,Light Freezing Fog,180,2012-11-15 03:14:00
9:34 PM,26.6,26.6,100,29.96,1.0,South,4.6,-,N/A,,Overcast,170,2012-11-15 03:34:00
9:54 PM,26.6,26.6,100,29.96,4.0,South,6.9,-,N/A,,Scattered Clouds,170,2012-11-15 03:54:00
10:14 PM,28.4,28.4,100,29.96,5.0,South,6.9,-,N/A,,Mostly Cloudy,180,2012-11-15 04:14:00
10:34 PM,30.2,30.2,100,29.95,7.0,South,9.2,-,N/A,,Overcast,190,2012-11-15 04:34:00
10:54 PM,30.2,30.2,100,29.96,7.0,South,6.9,-,N/A,,Overcast,190,2012-11-15 04:54:00
11:02 PM,30.2,30.2,100,29.96,7.0,South,5.8,-,N/A,,Overcast,190,2012-11-15 05:02:00
11:36 PM,28.4,28.4,100,29.96,10.0,South,8.1,-,N/A,,Scattered Clouds,180,2012-11-15 05:36:00
11:54 PM,28.4,26.6,93,29.97,7.0,South,4.6,-,N/A,,Clear,190,2012-11-15 05:54:00